星链-4255 (STARLINK-4255 )

导读

STARLINK-4255是美国太空探索技术公司(SpaceX)于2022年7月7日发射的星链低轨互联网卫星,隶属于Starlink星座,该卫星旨在为全球提供高速低延迟卫星互联网服务,属于SpaceX大规模星链组网的重要组成部分,目前已入轨运行,支撑全球卫星互联网的覆盖与服务能力拓展。

Basic Information
目录编号:
53003
目录名称:
STARLINK-4255
国际标识:
2022-076T
轨道中心:
EARTH
卫星名称:
星链-4255
卫星全名:
星链-4255 (STARLINK-4255 )
卫星状态:
在轨 (已飞行1441 天)
发射日期:
2022-07-07 UTC
国别 :
美国 (US)
星等 :
--
Orbit Information
数据来源 国际轨道数据 AOE轨道数据
星历时间 2026-06-17T12:00:02+0800
11小时前
查看轨道信息
2026-06-12T08:00:00+0800
5天前
查看轨道信息
半长轴 6907.285km 6917.92km
偏心率 0.0001714 0.0001103
轨道倾角 53.160° 53.160°
近地点辐角 31.593° 52.647°
升交点赤经 7.427° 30.682°
平近点角 37.614° 4.593°
近地点 527.964km 539.019km
远地点 530.332km 540.547km
周期 95.218分钟 95.438分钟
每日圈数 15.123131 15.088272
Detailed Information
固有亮度:
5
最大亮度:
2.5
卫星平台:
Starlink v1.5
覆盖范围:
全球
运营商:
太空探索技术公司
运营商所在国:
美国
制造商(研发单位):
太空探索技术公司
制造商所在国:
美国
使用方式:
暂无
Satellite Introduction
星链(Starlink)计划是由太空探索技术公司(SpaceX)提出的一个巨型低轨卫星互联网星座项目,计划在2019年至2024年间在太空搭建由约1.2万颗卫星组成的“星链”网络,其中1584颗将部署在地球上空550千米处的近地轨道,并从2020年开始工作。该卫星仍在工作。
2D Orbit Map
3D Orbit Map
Orbit Altitude Analysis Chart
Orbit Inclination Analysis Chart
Orbit Comprehensive Analysis Chart
View Comprehensive Chart